Location: Observatory Park - Geauga Park District
(41.5832°N, 81.0716°W)
Time: 09:46:18
(UTC-04:00)

N. Korean satellite - Pass Details

Date: 07 October 2021
Orbit: 450 x 495 km, 97.3° (Epoch: 23 October)

Event Time Altitude Azimuth Distance (km) Brightness Sun altitude
Rises 06:26:42 0° 16° (NNE) 2,566 10.5 -12.2°
Reaches altitude 10° 06:28:49 10° 21° (NNE) 1,686 9.6 -11.8°
Maximum altitude 06:32:23 55° 100° (E) 595 7.4 -11.2°
Drops below altitude 10° 06:35:57 10° 179° (S) 1,684 9.3 -10.5°
Sets 06:38:03 0° 184° (S) 2,562 10.2 -10.1°
